Startseite
Über Mich
AHP4
Galerie
Sehschlangen
Tourenbuch
Bookmarks
Elektronik
Bewertung
Geschichten
[Tagesmessung] [Jahreswerte] [Information]

Messwerte vom 28.11.2021

Die letzten Messwerte von 14:58:45 Uhr:
KategorieMesswert
Temperatur [°C]3
Luftdruck [mBar]980
Sonneneinstrahlung109
Wind [km/h]2 aus
Niederschlag [l/m²]0
rel.Luftfeucht.96.6%
CO2 [ppm]407

Diagramme
Messwerte vom 28.11.2021
Tagesaggregation
KategorieMinimumMaximumSchnittSumme
Temperatur [°C]-36-0.1171
Luftdruck [mBar]978981979.7458
Sonneneinstrahlung23189.2475
Wind [km/h]8
rF [%]90.296.696.07
Niederschlag [l/m²]0
CO2 [ppm]401408405.5
Einordnung alsFrosttag
Kalter Tag

Messungen an benachbarten Tagen: Zur Jahresaggregation 2021
Tabelle aller Messwerte
UhrzeitTemperatur [°C]Luftdruck [mBar]SonneWind [km/h]RichtungRegen [l/m²]rF [%]CO2 [ppm]
00:01:47 0 978 0 0 S 0 96.6 404
00:04:46 0 980 0 1 SO 0 96.6 404
00:07:47 0 979 0 3 SW 0 96.6 407
00:10:48 0 979 0 1 S 0 96.6 404
00:13:46 0 979 0 1 SW 0 96.6 401
00:16:48 0 979 0 2 SO 0 96.6 404
00:19:46 0 979 0 1 SO 0 96.6 407
00:22:49 0 979 0 0 SW 0 96.6 406
00:25:45 0 979 0 7 S 0 96.6 406
00:28:46 0 979 0 3 SO 0 96.6 407
00:31:46 0 979 0 0 SO 0 96.6 404
00:34:47 0 979 0 0 SW 0 96.6 407
00:37:47 0 979 0 2 SO 0 96.6 406
00:40:49 0 979 0 1 SO 0 96.6 403
00:43:47 0 979 0 0 S 0 96.6 407
00:46:50 0 980 0 0 NW 0 96.6 404
00:49:45 -1 978 0 1 0 96.6 407
00:52:48 -1 979 0 0 NW 0 96.6 407
00:55:44 -1 979 0 0 N 0 96.6 403
00:58:47 -1 979 0 0 NW 0 96.6 406
01:01:47 -1 978 0 0 NW 0 96.6 406
01:04:46 -1 979 0 0 W 0 96.6 406
01:07:46 -1 979 0 0 W 0 96.6 407
01:10:47 -1 979 0 0 W 0 96.6 407
01:13:48 -1 979 0 0 O 0 96.6 407
01:16:45 -1 978 0 0 O 0 96.6 407
01:19:45 -1 979 0 0 O 0 96.6 404
01:22:46 -1 979 0 0 O 0 96.6 407
01:25:46 -2 979 0 0 O 0 96.6 407
01:28:45 -2 979 0 0 O 0 96.6 407
01:31:47 -2 979 0 0 O 0 96.6 407
01:34:45 -2 979 0 0 O 0 96.6 405
01:37:45 -2 979 0 0 O 0 96.6 407
01:40:47 -2 980 0 0 O 0 96.6 407
01:43:45 -2 979 0 0 O 0 96.6 404
01:46:46 -2 979 0 0 SO 0 96.6 404
01:49:47 -2 979 0 0 SO 0 96.6 407
01:52:47 -2 979 0 0 SO 0 96.6 404
01:55:47 -2 979 0 0 SO 0 96.6 404
01:58:47 -2 979 0 0 S 0 96.6 407
02:01:48 -2 980 0 0 SW 0 96.6 407
02:04:48 -2 980 0 1 SO 0 96.6 407
02:07:47 -1 979 0 2 W 0 96.6 404
02:13:46 -1 979 0 3 S 0 96.6 404
02:16:46 -1 980 0 0 S 0 96.6 405
02:19:47 -1 980 0 0 SO 0 96.6 407
02:22:46 -1 980 0 0 SO 0 96.6 407
02:25:45 -1 980 0 0 SO 0 96.6 404
02:28:47 -1 979 0 0 SO 0 96.6 406
02:31:47 -1 979 0 0 W 0 96.6 407
02:34:47 -1 980 0 0 SO 0 96.6 404
02:37:46 -2 980 0 0 SO 0 96.6 407
02:40:47 -2 980 0 0 SO 0 96.6 407
02:43:46 -2 979 0 0 NW 0 96.6 404
02:46:48 -2 980 0 1 SW 0 96.6 406
02:49:45 -2 979 0 2 SO 0 96.6 407
02:52:48 -1 979 0 1 SO 0 96.6 406
02:55:47 -1 980 0 3 SW 0 96.6 407
02:58:45 -1 980 0 4 S 0 96.6 407
03:01:45 -1 979 0 1 SO 0 96.6 407
03:04:46 -1 979 0 0 S 0 96.6 407
03:07:46 -1 980 0 0 S 0 96.6 407
03:10:50 -1 980 0 0 SW 0 96.6 406
03:13:48 -1 980 0 0 NW 0 96.6 407
03:16:48 -1 980 0 0 SO 0 96.6 404
03:19:48 -1 980 0 0 S 0 96.6 408
03:22:47 -1 979 0 0 NW 0 96.6 407
03:25:47 -1 979 0 0 O 0 96.6 404
03:28:45 -2 980 0 1 N 0 96.6 404
03:31:47 -2 980 0 0 O 0 96.6 407
03:34:47 -2 979 0 0 NO 0 96.6 404
03:37:51 -2 980 0 1 W 0 96.6 405
03:40:49 -2 980 0 0 NW 0 96.6 405
03:43:49 -2 980 0 0 NW 0 96.6 404
03:46:47 -2 980 0 0 NW 0 96.6 405
03:49:50 -2 980 0 0 NW 0 96.6 407
03:52:48 -2 980 0 0 NW 0 96.6 404
03:55:46 -2 980 0 0 NW 0 96.6 407
03:58:46 -2 980 0 0 0 96.6 404
04:01:48 -2 980 0 0 S 0 96.6 406
04:04:46 -2 980 0 0 O 0 96.6 407
04:07:46 -2 979 0 0 NO 0 96.6 407
04:10:45 -2 978 0 0 W 0 96.6 407
04:13:46 -2 979 0 0 O 0 96.6 406
04:16:47 -2 980 0 0 SW 0 96.6 406
04:19:48 -2 979 0 0 SW 0 96.6 404
04:22:47 -2 980 0 0 SO 0 96.6 406
04:25:48 -2 980 0 2 SO 0 96.6 404
04:28:48 -2 979 0 0 SW 0 96.6 404
04:31:47 -2 979 0 0 NO 0 96.6 406
04:34:46 -2 980 0 0 W 0 96.6 404
04:37:46 -2 979 0 0 SO 0 96.6 407
04:40:46 -2 980 0 0 N 0 96.6 404
04:43:45 -2 979 0 0 W 0 96.6 403
04:46:46 -2 980 0 0 NW 0 96.6 407
04:49:51 -2 980 0 0 NW 0 96.6 407
04:52:46 -2 980 0 0 NW 0 96.6 407
04:55:46 -2 980 0 0 N 0 96.6 406
04:58:44 -2 980 0 0 N 0 96.6 403
05:01:47 -2 979 0 0 N 0 96.6 407
05:04:46 -2 979 0 0 N 0 96.6 407
05:07:49 -2 979 0 0 SO 0 96.6 403
05:10:50 -2 980 0 0 SO 0 96.6 406
05:13:46 -2 980 0 0 SO 0 96.6 406
05:16:46 -3 979 0 0 SO 0 96.6 404
05:19:48 -3 979 0 0 SO 0 96.6 406
05:22:49 -3 980 0 0 SO 0 96.6 406
05:25:46 -3 979 0 0 SO 0 96.6 404
05:28:46 -3 980 0 0 SO 0 96.6 407
05:31:46 -3 979 0 0 SO 0 96.6 406
05:34:46 -3 980 0 0 SO 0 96.6 407
05:37:45 -3 979 0 0 W 0 96.6 406
05:40:47 -3 980 0 0 W 0 96.6 401
05:43:46 -3 980 0 0 W 0 96.6 407
05:46:46 -3 979 0 0 W 0 96.6 407
05:49:46 -3 980 0 0 W 0 96.6 404
05:52:47 -3 980 0 0 W 0 96.6 404
05:55:46 -3 979 0 0 W 0 96.6 404
05:58:48 -3 980 0 0 W 0 96.6 402
06:01:46 -3 979 0 0 O 0 96.6 404
06:04:48 -3 980 0 0 O 0 96.6 405
06:07:47 -3 979 0 0 W 0 96.6 404
06:10:47 -3 980 0 0 O 0 96.6 404
06:13:46 -3 980 0 0 S 0 96.6 407
06:16:49 -3 980 0 0 S 0 96.6 404
06:19:48 -3 980 0 0 S 0 96.6 404
06:22:47 -3 980 0 0 S 0 96.6 404
06:25:47 -3 980 0 0 S 0 96.6 407
06:28:47 -3 980 0 0 NW 0 96.6 407
06:31:45 -3 979 0 0 0 96.6 407
06:34:46 -3 980 0 0 S 0 96.6 406
06:37:45 -3 980 0 0 S 0 96.6 407
06:40:46 -3 980 0 0 S 0 96.6 406
06:43:47 -3 980 0 0 S 0 96.6 407
06:46:49 -3 980 0 0 S 0 96.6 406
06:49:47 -3 980 0 0 S 0 96.6 406
06:52:46 -3 980 0 2 S 0 96.6 407
06:55:46 -3 979 0 0 SW 0 96.6 401
06:58:46 -3 980 0 0 0 96.6 404
07:01:50 -3 980 0 0 NW 0 96.6 404
07:04:49 -3 980 0 0 NW 0 96.6 403
07:07:50 -3 980 0 0 NW 0 96.6 407
07:10:45 -3 980 0 0 O 0 96.6 404
07:13:46 -3 979 0 0 O 0 96.6 404
07:16:44 -3 980 0 0 0 96.6 404
07:19:46 -3 980 0 1 NW 0 96.6 407
07:22:46 -3 980 0 0 0 96.6 404
07:25:48 -3 980 0 0 SW 0 96.6 404
07:28:48 -3 980 0 0 SW 0 96.6 403
07:31:47 -3 980 3 0 0 96.6 406
07:34:48 -3 980 4 0 O 0 96.6 406
07:37:48 -3 980 7 0 NW 0 96.6 404
07:40:50 -3 980 11 0 NO 0 96.6 406
07:43:47 -3 980 16 0 SO 0 96.6 404
07:46:48 -3 980 23 0 SO 0 96.6 407
07:49:48 -3 980 31 0 SO 0 96.6 407
07:52:47 -3 980 40 0 SO 0 96.6 406
07:55:50 -3 980 50 0 SO 0 96.6 407
07:58:48 -3 980 60 0 SO 0 96.6 405
08:01:49 -3 980 70 0 SO 0 96.6 404
08:04:48 -3 980 81 0 NO 0 96.6 407
08:07:47 -3 980 91 0 0 96.6 407
08:10:46 -3 980 101 0 NO 0 96.6 407
08:13:46 -3 980 111 0 0 96.6 404
08:16:49 -3 980 119 0 NO 0 96.6 403
08:19:47 -3 980 127 0 NO 0 96.6 404
08:22:48 -3 980 132 0 N 0 96.6 407
08:25:47 -3 980 137 0 0 96.6 406
08:28:48 -3 980 142 0 S 0 96.6 404
08:31:51 -3 980 146 1 SW 0 96.6 406
08:34:48 -3 980 149 0 SW 0 96.6 404
08:37:48 -3 980 153 0 SW 0 96.6 404
08:40:49 -3 980 155 0 SW 0 96.6 407
08:43:49 -3 980 158 0 SW 0 96.6 407
08:46:49 -3 980 161 0 SW 0 96.6 407
08:49:48 -3 980 163 0 SW 0 96.6 404
08:52:48 -3 980 168 0 SW 0 96.6 407
08:55:47 -3 980 172 0 SW 0 96.6 407
08:58:50 -2 980 177 0 SW 0 96.6 408
09:01:52 -2 980 180 0 NW 0 96.6 404
09:04:50 -2 980 182 0 NW 0 96.6 407
09:07:46 -2 980 181 0 0 96.6 407
09:10:54 -2 980 184 0 NW 0 96.6 407
09:13:47 -2 980 189 0 NW 0 96.6 405
09:16:49 -2 980 193 0 NW 0 96.6 404
09:19:49 -1 980 196 0 SO 0 96.6 404
09:22:47 -1 980 199 0 SO 0 96.6 404
09:25:47 -1 980 201 1 W 0 96.6 407
09:28:47 -1 980 199 0 N 0 96.6 407
09:31:48 -1 980 191 0 SW 0 96.6 406
09:34:49 0 980 185 1 S 0 96.6 405
09:37:48 0 980 187 0 SO 0 96.6 407
09:40:48 0 980 188 0 S 0 96.6 406
09:43:48 0 980 183 1 SW 0 96.6 404
09:46:49 0 980 183 1 SO 0 96.6 404
09:49:48 0 980 182 0 S 0 96.6 404
09:52:48 0 980 180 0 SW 0 96.6 404
09:55:48 0 980 178 2 W 0 96.6 404
09:58:48 0 980 176 0 SO 0 96.6 403
10:01:47 0 980 177 2 S 0 96.6 403
10:04:45 0 980 176 1 O 0 96.6 407
10:07:48 0 980 181 1 S 0 96.6 401
10:10:49 0 980 191 5 SW 0 96.6 407
10:13:47 1 980 193 2 SW 0 96.6 407
10:16:48 1 980 193 0 SO 0 96.6 406
10:19:48 1 980 191 1 S 0 96.6 407
10:22:46 1 981 190 2 S 0 96.6 404
10:25:50 1 980 197 0 SW 0 96.6 406
10:28:50 1 980 199 3 SW 0 96.6 406
10:31:48 1 980 196 2 SW 0 96.6 407
10:34:46 1 980 193 1 W 0 96.6 407
10:37:46 1 980 193 1 S 0 96.6 407
10:40:47 1 980 196 1 SW 0 96.6 405
10:43:48 1 980 198 1 SW 0 96.6 403
10:46:46 1 980 198 1 SW 0 96.6 407
10:49:47 1 980 200 4 SO 0 96.6 404
10:52:47 1 980 201 0 SW 0 96.6 404
10:55:49 1 980 202 2 SW 0 96.6 407
10:58:46 1 980 202 0 S 0 96.6 404
11:01:46 1 980 204 1 SW 0 96.6 406
11:04:47 2 980 206 0 SO 0 96.6 406
11:07:46 2 980 209 0 S 0 96.6 406
11:10:47 2 980 213 0 SO 0 96.6 406
11:13:45 2 980 215 1 N 0 96.6 407
11:16:46 2 980 215 1 S 0 96.6 407
11:19:47 3 980 215 1 S 0 96.6 404
11:22:47 3 980 216 0 S 0 96.6 406
11:25:48 3 980 216 5 W 0 96.6 404
11:28:46 3 980 216 0 S 0 96.6 404
11:31:48 3 980 215 0 W 0 96.6 407
11:34:48 3 980 215 2 SW 0 96.6 407
11:37:48 3 980 213 0 0 96.6 406
11:40:44 3 980 211 1 S 0 96.6 404
11:43:47 3 980 212 3 O 0 96.6 406
11:46:46 3 980 218 0 S 0 96.6 406
11:49:49 3 980 222 2 SW 0 96.6 404
11:52:47 3 980 226 2 SO 0 96.6 406
11:55:48 4 980 224 5 SW 0 96.6 403
11:58:45 4 980 222 3 0 96.6 406
12:01:48 4 980 223 1 W 0 96.6 403
12:04:49 4 980 219 2 SW 0 96.6 404
12:07:47 4 980 213 2 SW 0 96.5 407
12:10:48 4 980 210 0 NW 0 96.1 406
12:13:48 4 980 210 2 NW 0 96 406
12:16:47 4 980 213 3 SO 0 95.7 407
12:19:47 4 980 218 1 NO 0 95.6 407
12:22:47 4 980 221 1 SO 0 96.4 407
12:25:47 4 980 221 1 S 0 96.6 404
12:28:47 4 980 221 1 S 0 96.6 404
12:31:48 4 980 220 1 NW 0 96.6 407
12:34:48 4 980 222 0 SO 0 96.6 404
12:37:47 5 980 225 5 SW 0 96.6 406
12:40:47 5 980 223 1 SW 0 96.4 403
12:43:49 5 980 225 0 W 0 96.2 406
12:46:49 5 980 220 5 SW 0 94.8 406
12:49:47 5 980 222 4 NW 0 94.7 404
12:52:46 6 980 227 1 S 0 94.5 404
12:55:46 6 980 230 4 NW 0 94.2 406
12:58:46 6 980 219 5 O 0 91.2 403
13:01:47 6 980 217 0 W 0 90.3 406
13:04:50 6 980 220 2 NW 0 91.1 403
13:07:47 6 980 222 4 O 0 90.8 407
13:10:46 6 980 211 2 SW 0 90.7 407
13:13:48 6 980 204 2 S 0 90.7 404
13:16:46 5 980 195 3 SW 0 91.5 406
13:19:49 5 980 200 8 W 0 91.3 407
13:22:46 5 980 207 3 W 0 91.4 406
13:25:48 5 980 205 0 SO 0 93.1 407
13:28:47 5 980 205 0 S 0 93.3 406
13:31:47 5 980 202 6 SW 0 92.9 407
13:34:47 5 980 212 2 S 0 93.2 403
13:37:48 5 980 229 2 SW 0 93.6 403
13:40:48 5 980 231 2 S 0 93.7 407
13:43:50 5 980 231 1 S 0 92.9 404
13:46:46 6 980 220 2 SO 0 92.4 403
13:49:47 6 980 207 5 S 0 91.2 407
13:52:49 5 980 215 1 SW 0 90.2 407
13:55:47 5 980 219 1 SW 0 90.3 407
13:58:46 5 980 221 3 SO 0 91 407
14:01:48 5 980 224 2 SW 0 91.5 406
14:04:47 5 980 222 3 W 0 92 406
14:07:52 5 980 227 0 NW 0 92.7 407
14:10:46 5 980 222 3 W 0 92.8 407
14:13:50 5 980 207 0 NW 0 92.7 407
14:16:47 4 980 184 1 SO 0 92.8 407
14:19:47 4 980 169 0 SW 0 93.1 407
14:22:47 4 980 162 0 N 0 93.5 407
14:25:46 4 980 156 1 S 0 94.1 407
14:28:45 4 980 146 0 S 0 94.1 404
14:31:47 4 980 137 1 S 0 94.6 407
14:34:48 4 980 127 1 SO 0 94.8 404
14:37:47 4 980 124 1 N 0 95.1 407
14:40:48 4 980 115 1 SW 0 95.2 404
14:43:47 4 980 116 3 S 0 95.6 404
14:46:49 3 980 130 2 W 0 96 404
14:49:47 3 980 133 0 SW 0 96.2 407
14:52:46 3 980 121 0 SW 0 96.4 406
14:55:46 3 980 114 0 S 0 96.5 406
14:58:45 3 980 109 2 0 96.6 407

Letzte Änderung : 31-Dez-2020
Copyright Jens Köhler, Wolfsburg, Obere Dorfstraße 10d